Hourly Data Report for October 18, 2016

All times are specified in Local Standard Time (LST). Add 1 hour to adjust for Daylight Saving Time where and when it is observed.

PANGNIRTUNG
NUNAVUT

66°08'36.300" N
65°42'40.500" W
22.60 m
2403049
71826
WXP

Download Data

Hourly Data (October 2016)
Hourly Data Report for October 18, 2016
Temp Definition
°C
Dew Point Temp Definition
°C
Rel Hum Definition
%
Wind Dir Definition
10's deg

Wind Spd Definition
km/h
Visibility Definition
km
Stn Press Definition
kPa
Hmdx Definition


Wind Chill Definition


Weather Definition


TIME
00:00 -6.3 -7.9 89 11 6   101.45   -9 LegendNANA
01:00 -6.6 -8.1 89 11 5   101.45   -9 LegendNANA
02:00 -6.2 -7.9 88 16 6   101.48   -9 LegendNANA
03:00 -5.6 -7.5 87 33 7   101.50   -9 LegendNANA
04:00 -5.5 -8.4 80 28 14   101.53   -11 LegendNANA
05:00 -6.5 -10.3 74 31 8   101.58   -10 LegendNANA
06:00 -5.6 -12.1 60 24 11   101.59   -10 LegendNANA
07:00 -5.3 -13.4 53 28 11   101.58   -10 LegendNANA
08:00 -6.6 -11.9 66 29 14   101.60   -12 LegendNANA
09:00 -6.9 -11.9 68 27 18   101.57   -14 LegendNANA
10:00 -6.6 -12.0 65 32 23   101.53   -14 LegendNANA
11:00 -6.9 -13.1 61 32 17   101.54   -13 LegendNANA
12:00 -7.4 -13.6 61 32 19   101.52   -14 LegendNANA
13:00 -7.8 -14.0 61 31 20   101.52   -15 LegendNANA
14:00 -7.6 -14.6 57 33 20   101.50   -15 LegendNANA
15:00 -7.7 -14.9 56 30 20   101.53   -15 LegendNANA
16:00 -7.7 -15.4 54 30 19   101.53   -15 LegendNANA
17:00 -8.5 -14.3 63 29 20   101.54   -16 LegendNANA
18:00 -8.5 -14.7 61 29 19   101.49   -16 LegendNANA
19:00 -9.1 -15.2 61 30 20   101.42   -17 LegendNANA
20:00 -8.6 -15.1 60 31 18   101.36   -16 LegendNANA
21:00 -9.1 -15.3 61 27 21   101.33   -17 LegendNANA
22:00 -9.6 -15.5 62 29 10   101.29   -15 LegendNANA
23:00 -10.3 -16.1 63 27 8   101.24   -15 LegendNANA

Notes on Data Quality.

Legend

  • E = Estimated
  • M = Missing
  • NA = Not Available
  • ‡ = Partner data that is not subject to review by the National Climate Archives
Date modified: